Regional Weather Roundup
Issued by NWS Newport/Morehead, NC

Current Version | Previous Version | Text Only | Print | Product List | Glossary On
Versions: 1 2 3 4 5 6 7 8 9 10 11 12 13 14 15 16 17 18 19 20 21 22 23 24 25 26 27 28 29 30 31 32 33 34 35 36 37 38 39 40 41 42 43 44 45 46 47 48 49 50
260 ASUS42 KMHX 230625 RWRMHX WEATHER ROUNDUP FOR EASTERN NORTH CAROLINA NATIONAL WEATHER SERVICE NEWPORT/MOREHEAD CITY NC 200 AM EDT THU MAR 23 2017 NOTE: "FAIR" INDICATES FEW OR NO CLOUDS BELOW 12,000 FEET WITH NO SIGNIFICANT WEATHER AND/OR OBSTRUCTIONS TO VISIBILITY NCZ015>017-031-032-045>047-102-103-230700- NORTH COAST CITY SKY/WX TMP DP RH WIND PRES REMARKS EDENTON CLEAR 38 25 58 CALM 30.48R ELIZABETH CITY PTCLDY 39 23 52 NE8 30.47R KITTY HAWK NOT AVBL MANTEO CLEAR 40 24 54 NE8 30.47R $$ NCZ045>047-081-094-103-104-230700- CENTRAL COAST CITY SKY/WX TMP DP RH WIND PRES REMARKS FRISCO CLEAR 43 25 49 NE9 30.45R $$ NCZ095-097-098-100-101-230700- SOUTHERN COAST CITY SKY/WX TMP DP RH WIND PRES REMARKS BEAUFORT CLEAR 38 28 67 N8 30.44S CEDAR ISLAND NOT AVBL JACKSONVILLE PTCLDY 41 30 65 NE8 30.44S PINEY ISLAND CLEAR N/A N/A N/A NE13 30.44S WILMINGTON CLEAR 39 29 67 NE7 30.42R $$ NCZ011>013-027>030-043-044-078>080-089-090>093-098-230700- COASTAL PLAIN CITY SKY/WX TMP DP RH WIND PRES REMARKS AHOSKIE NOT AVBL CLINTON CLEAR 40 30 69 CALM 30.45F ELIZABETHTOWN CLEAR 42 31 65 E3 30.43S GOLDSBORO PTCLDY 37 26 66 E5 30.44R GREENVILLE PTCLDY 32 30 93 CALM 30.47S HAVELOCK NOT AVBL KENANSVILLE PTCLDY 36 28 75 CALM 30.45S KINSTON PTCLDY 35 29 79 CALM 30.47S NEW BERN CLEAR 40 29 64 NE10 30.46R RICHLANDS CLEAR 35 29 78 NE5 30.45R ROCKY MOUNT CLEAR 34 23 64 NE3 30.47R WASHINGTON PTCLDY 35 27 72 CALM 30.47S WHITEVILLE CLEAR 44 29 56 NE8 30.41F $$ AMZ130-135-150-152-154-156-158-170-250-252-270-ANZ085-086-088-633-658-670-230700- MARINE OBSERVATIONS STATION/POSITION TIME TEMP WIND PRES WAVE SWELL AIR SEA DIR/SP/G HT/PER HT/PER (UTC) (F) (DEG/KT/KT) (MB) (FT/S) (FT/S) CHESAPEAKE LIGHT NOT AVBL 64 E VA BEACH 0550 42 49 20/ 21/ 25 1030.4 10/ 8 DUCK 0600 42 48 30/ 16/ 18 1030.8 2 E DUCK 0600 47 N/A 6/ 8 2/11 OREGON INLET 0600 41 51 20/ 13/ 17 1031.1 13E OREGON INLT NOT AVBL HATTERAS CG 0600 44 54 30/ 12/ 17 1030.6 DIAMOND BUOY 0550 47 74 20/ 21/ 27 1030.0 9/10 7/10 CAPE LOOKOUT 0600 45 30/ 12/ 16 1030.2 BEAUFORT LAB 0600 42 53 20/ 7/ 10 1029.8 30 SE NEW RVR IN 0608 50 50/ 19/ 27 1029.8 30 SE NEW RVR IN 0613 64 N/A 7/ 6 2/11 27 SE WRIGHTSVLE 0608 52 62 90/ 21/ 31 1028.5 5 SE WRIGHTSVLE 0608 50 57 70/ 17/ 33 1029.6 225 S CAPE HAT 0550 61 72 20/ 25/ 31 1023.9 9/ 9 7/ 9 41 SE CHARLESTON 0550 61 66 40/ 27/ 31 1025.2 7/ 6 3/10 $$

USA.gov is the U.S. government's official web portal to all federal, state and local government web resources and services.